Wind_Speed
18 18 15 12 11 11 10 10 10 12 12 9 9 9 8 9 9 10 11 12 12 11 11 11 11 11 11 12 12 12 11 11 11 11 12 11 10 10 10 10 9 9 9 9
21 18 16 15 15 14 13 12 12 12 13 9 8 9 8 9 11 12 12 12 13 12 12 12 11 12 12 12 13 13 14 13 12 13 13 12 11 11 11 11 11 9 10 9
22 17 17 17 17 16 14 12 12 12 14 10 8 9 11 12 11 12 13 13 13 12 12 12 11 12 12 12 13 13 15 14 13 13 13 12 11 12 12 11 11 10 10 10
24 21 20 20 19 17 15 14 14 14 13 10 8 10 13 15 14 13 12 13 13 13 13 12 11 12 12 13 13 14 15 15 15 15 13 12 12 13 13 12 12 11 11 11
25 24 23 22 20 18 17 16 15 14 13 11 10 10 12 16 15 13 12 13 13 13 13 13 12 12 13 13 14 15 15 16 16 15 14 13 13 13 14 13 12 11 11 11
26 24 24 23 21 20 18 16 15 14 13 14 12 12 13 15 15 14 14 14 13 14 14 13 13 13 14 14 14 15 15 16 16 16 15 14 14 14 15 14 14 12 12 11
28 26 25 24 23 21 19 17 15 13 13 12 11 13 16 16 16 15 15 16 15 15 14 14 14 13 14 15 15 15 16 16 17 17 17 15 14 15 15 15 14 13 13 12
27 26 25 25 23 22 21 19 17 14 12 12 12 13 14 16 17 17 16 16 17 15 14 15 15 14 14 15 16 16 16 16 17 17 17 17 15 15 15 15 14 14 13 13
23 23 25 26 24 24 22 21 18 16 13 14 14 14 15 17 17 18 17 17 16 16 15 15 15 14 15 15 16 16 16 17 16 17 17 17 16 15 15 15 15 14 14 13
24 22 23 25 26 25 24 21 21 21 19 17 15 16 16 19 17 18 16 15 16 16 15 15 16 15 15 15 16 17 17 17 16 16 17 18 17 17 16 16 15 15 15 15
28 24 23 25 27 24 25 24 24 23 21 17 16 15 15 19 20 19 18 17 16 16 16 15 17 16 13 15 17 17 17 17 17 17 17 17 18 18 17 16 16 16 16 15
31 28 25 26 26 24 25 25 25 25 24 22 18 17 16 18 19 19 18 17 17 17 16 16 16 16 16 16 16 16 17 17 17 17 17 18 18 18 18 17 17 16 15 15
33 31 28 26 26 26 26 26 25 24 23 22 20 19 22 20 19 20 19 18 18 17 17 16 17 16 16 16 16 17 17 17 17 18 19 19 19 18 18 17 16 16 15 14
34 34 32 27 25 25 24 26 26 25 26 23 21 19 22 21 20 22 22 20 18 18 17 16 17 17 17 17 17 17 18 18 18 19 19 19 18 18 17 17 16 16 16 15
35 35 34 30 24 22 23 24 26 27 27 23 20 21 22 21 21 23 22 20 19 19 18 17 17 16 17 17 17 18 18 18 18 18 18 18 18 18 17 16 16 16 15 15
36 36 36 33 28 23 23 24 24 26 26 25 22 21 21 22 24 24 23 22 20 19 18 18 17 17 17 17 17 18 18 18 18 18 18 18 18 18 17 16 16 15 16 16
35 35 35 33 29 25 25 22 23 25 25 26 26 24 23 25 27 26 24 22 20 19 18 18 18 17 17 18 18 18 18 18 19 19 19 18 18 18 17 16 16 16 16 16
33 34 34 31 29 29 26 24 23 23 25 26 27 26 25 27 27 26 24 22 21 20 19 18 19 18 18 18 18 19 20 20 20 19 18 18 18 18 17 17 16 16 16 15
32 32 32 30 29 29 27 25 25 26 26 27 27 26 26 27 27 25 23 22 21 20 20 19 19 19 19 20 20 20 20 20 19 19 19 19 19 18 18 17 17 16 16 16
32 31 32 30 27 26 26 25 25 25 27 28 27 26 27 27 26 24 23 21 21 20 20 20 20 20 20 20 21 21 20 20 19 19 19 19 19 18 18 17 17 17 17 17
32 32 33 31 28 26 24 25 26 27 29 28 27 27 28 28 26 25 23 22 21 21 21 22 22 22 21 21 21 21 21 20 20 20 20 20 20 18 18 18 18 18 18 18
33 33 33 32 30 28 27 27 27 28 28 28 28 28 27 27 27 26 25 23 23 23 23 23 23 23 22 22 22 22 22 21 21 20 20 20 20 19 18 18 18 18 18 18
32 32 32 34 34 32 31 30 30 29 28 28 28 28 28 27 27 27 26 25 24 24 24 25 25 24 23 23 24 24 23 23 22 20 21 21 20 19 19 19 19 19 19 19
33 33 34 35 36 36 34 33 31 30 30 30 30 29 29 29 28 28 27 26 26 26 26 25 25 25 25 25 25 24 24 23 22 21 21 21 20 20 19 19 20 20 20 20
37 36 37 36 36 37 37 36 34 33 31 31 30 30 30 29 28 28 27 27 27 27 26 26 26 26 25 25 24 24 23 23 21 21 22 21 21 20 20 20 20 21 22 22
37 37 37 38 38 37 38 36 35 34 33 32 32 32 31 30 29 28 28 27 27 27 28 27 27 26 26 25 25 24 23 22 22 22 22 22 22 21 21 21 22 22 23 23
Wind_Direction
213 212 210 211 217 209 210 216 230 234 248 257 256 265 275 291 306 309 316 326 329 333 337 341 344 346 346 347 345 347 348 343 341 341 338 335 335 330 324 320 317 313 304 291
218 218 215 213 219 218 213 216 235 251 254 253 252 261 274 287 300 301 305 313 319 326 332 340 340 341 342 344 345 346 345 341 339 335 333 330 329 326 324 319 318 315 308 299
220 219 223 221 221 220 218 220 229 242 254 254 257 268 271 275 289 300 304 306 311 319 325 331 336 336 338 336 337 339 340 338 335 336 331 326 326 325 323 321 316 312 304 303
221 219 224 225 223 224 222 227 231 237 246 248 256 265 272 274 285 295 301 302 305 312 320 322 327 330 332 332 332 334 334 335 335 333 330 325 325 324 322 320 314 310 306 303
221 221 224 226 223 225 222 229 232 239 248 246 247 257 269 277 278 284 293 295 299 304 307 313 320 324 327 329 330 328 328 330 330 331 331 328 324 323 323 321 318 311 307 304
221 227 229 228 226 225 226 230 231 233 241 247 244 247 262 267 271 268 282 287 289 299 297 303 312 319 323 324 326 327 326 326 326 326 327 324 322 321 322 321 321 316 311 307
223 225 230 230 227 227 226 227 231 238 246 254 251 249 256 264 269 268 277 285 288 296 300 306 310 316 320 322 324 325 326 323 324 324 324 322 318 319 322 322 321 318 315 309
228 228 229 230 227 226 229 224 224 230 252 269 261 253 254 263 268 269 274 280 289 294 297 300 305 308 313 317 319 322 323 322 322 323 324 324 321 321 322 321 324 322 320 314
226 234 236 235 230 224 228 227 223 229 239 255 260 251 252 266 270 273 275 278 285 290 293 296 302 305 308 313 317 321 322 322 321 322 323 325 326 323 321 321 320 322 321 319
213 226 232 239 233 225 223 227 225 223 235 247 259 256 255 266 273 281 280 278 281 286 291 294 297 300 303 312 316 318 320 321 321 320 320 324 325 323 321 319 317 319 320 317
211 217 224 232 235 229 223 222 224 225 226 238 254 262 261 259 269 277 279 274 276 283 286 289 291 297 304 309 313 315 317 319 319 319 319 321 323 322 320 319 317 316 317 316
214 215 219 228 237 232 227 227 227 228 227 226 237 260 255 255 264 270 274 276 278 282 285 288 289 294 299 304 310 312 313 315 316 317 319 319 320 320 321 320 319 316 315 315
214 214 216 221 230 235 228 226 227 230 235 233 234 252 260 259 266 271 274 277 279 281 284 285 288 294 302 304 305 307 311 313 314 316 317 317 317 317 318 319 320 319 317 313
213 215 215 217 226 236 237 229 226 225 230 235 234 242 256 261 262 267 272 275 276 281 282 281 287 292 295 299 301 304 308 311 312 314 315 316 316 316 316 318 319 318 316 313
215 216 216 211 215 225 235 236 231 227 228 230 233 239 253 260 264 268 269 272 273 278 280 281 286 290 293 297 300 303 307 310 310 313 315 317 318 318 316 315 315 314 314 313
217 217 218 215 211 215 228 234 233 229 227 225 228 235 244 255 258 264 268 271 273 276 279 280 284 289 292 295 299 304 306 308 309 313 315 316 317 318 317 314 313 314 313 313
218 218 219 217 214 217 225 227 228 228 228 226 227 230 238 249 255 260 265 270 272 275 275 278 283 289 292 295 299 304 307 308 310 311 312 314 315 316 316 314 313 313 314 313
218 216 218 216 214 221 225 227 229 229 230 231 229 231 239 249 255 260 265 268 269 271 273 276 281 287 291 294 297 302 304 305 307 309 311 313 314 313 314 314 313 313 315 316
219 217 215 213 218 224 226 225 225 226 227 230 232 233 237 247 254 260 263 266 267 268 271 275 279 284 288 291 295 299 303 305 306 307 310 311 312 311 311 311 312 314 314 313
218 215 213 211 214 224 229 227 226 226 230 230 231 233 237 244 251 257 261 263 264 267 269 273 277 281 286 289 293 298 301 303 304 306 308 309 310 311 310 310 311 313 313 314
218 216 213 211 215 221 224 227 227 227 231 232 231 232 236 243 249 254 258 259 262 267 271 273 275 280 283 286 290 295 297 299 300 302 305 306 307 308 308 310 310 311 311 312
222 219 216 213 217 223 223 226 226 227 230 231 232 235 239 245 250 254 257 261 263 266 269 271 273 276 280 283 288 291 293 296 296 298 300 303 303 303 304 306 309 310 309 310
219 219 218 217 219 225 227 228 230 231 232 233 236 239 241 244 248 253 256 260 262 264 267 268 272 274 278 282 286 288 290 292 292 293 297 299 300 302 302 304 307 308 307 307
216 216 217 217 219 222 225 228 229 230 234 235 236 240 243 246 250 254 257 259 260 262 265 267 270 273 276 281 284 286 288 289 288 290 293 296 298 300 300 301 304 306 307 307
213 215 217 220 222 224 226 228 232 236 238 239 239 242 245 248 251 254 255 257 259 259 262 266 269 271 275 279 281 284 287 286 286 287 290 293 297 297 297 299 301 304 306 305
213 213 215 219 223 226 228 231 235 237 240 241 242 245 248 250 251 253 254 256 258 258 261 264 267 270 273 276 278 280 284 286 286 287 289 291 293 295 294 296 299 302 304 305
Height
5908 5912 5914 5918 5921 5924 5927 5930 5931 5931 5930 5930 5930 5929 5928 5928 5926 5926 5924 5923 5922 5921 5920 5918 5917 5916 5915 5914 5912 5911 5910 5909 5908 5907 5906 5905 5903 5902 5901 5900 5899 5899 5898 5897
5906 5909 5913 5916 5919 5921 5923 5927 5928 5928 5929 5928 5929 5929 5928 5927 5927 5926 5924 5923 5921 5920 5919 5918 5917 5916 5915 5914 5913 5911 5910 5909 5907 5906 5905 5903 5902 5901 5900 5899 5898 5897 5896 5895
5903 5908 5910 5912 5916 5918 5921 5924 5926 5927 5927 5926 5928 5928 5928 5927 5926 5925 5924 5922 5921 5920 5919 5918 5916 5915 5914 5913 5912 5911 5909 5908 5906 5905 5903 5902 5901 5900 5899 5897 5896 5895 5894 5894
5899 5903 5906 5909 5913 5916 5919 5921 5923 5924 5925 5925 5927 5928 5927 5925 5925 5924 5923 5922 5920 5919 5918 5917 5916 5915 5913 5912 5911 5910 5909 5907 5905 5903 5902 5900 5899 5898 5897 5896 5895 5894 5893 5892
5895 5899 5902 5905 5909 5912 5916 5918 5920 5921 5922 5923 5925 5926 5927 5924 5923 5922 5922 5921 5919 5918 5917 5915 5915 5914 5913 5911 5910 5909 5907 5906 5904 5902 5900 5899 5898 5896 5895 5894 5892 5892 5891 5890
5891 5895 5898 5902 5906 5909 5912 5915 5916 5918 5920 5921 5922 5924 5924 5922 5921 5920 5919 5919 5917 5916 5914 5912 5912 5911 5911 5910 5909 5907 5906 5904 5903 5901 5899 5897 5896 5894 5893 5892 5890 5889 5888 5887
5886 5890 5893 5897 5901 5905 5908 5912 5914 5915 5917 5919 5921 5921 5922 5921 5920 5919 5918 5916 5916 5915 5913 5912 5911 5910 5910 5908 5907 5906 5905 5903 5901 5899 5897 5895 5894 5893 5891 5890 5888 5887 5886 5885
5882 5886 5890 5893 5897 5901 5904 5908 5912 5915 5917 5918 5918 5918 5919 5918 5917 5916 5916 5915 5914 5913 5913 5911 5910 5909 5908 5907 5906 5905 5903 5901 5899 5897 5896 5894 5892 5891 5890 5888 5887 5885 5883 5882
5880 5883 5886 5889 5893 5897 5900 5904 5909 5912 5914 5916 5916 5916 5915 5914 5914 5914 5914 5913 5912 5912 5911 5910 5908 5908 5906 5905 5904 5903 5901 5900 5898 5896 5894 5892 5891 5889 5888 5886 5885 5883 5882 5880
5876 5880 5883 5885 5888 5892 5897 5901 5905 5907 5910 5912 5913 5913 5912 5911 5911 5911 5911 5911 5910 5910 5909 5908 5906 5905 5903 5903 5902 5901 5899 5898 5896 5895 5893 5891 5889 5888 5886 5884 5883 5882 5880 5878
5869 5875 5879 5881 5883 5888 5892 5896 5899 5903 5906 5909 5910 5912 5909 5908 5908 5908 5908 5907 5907 5906 5906 5905 5904 5902 5901 5901 5900 5899 5898 5896 5895 5893 5891 5889 5887 5886 5884 5882 5881 5879 5878 5876
5863 5869 5874 5877 5880 5883 5887 5891 5895 5898 5901 5903 5906 5909 5904 5904 5904 5904 5905 5904 5903 5903 5903 5902 5901 5900 5899 5898 5898 5897 5895 5894 5892 5891 5889 5887 5885 5883 5881 5880 5878 5877 5875 5874
5857 5863 5868 5872 5877 5878 5882 5886 5890 5894 5897 5899 5902 5905 5900 5900 5901 5901 5901 5901 5901 5900 5900 5900 5898 5897 5896 5896 5895 5894 5893 5892 5890 5888 5886 5885 5883 5881 5879 5877 5876 5874 5873 5871
5851 5855 5862 5868 5872 5875 5877 5880 5885 5889 5892 5895 5898 5899 5896 5896 5897 5897 5897 5897 5898 5897 5897 5897 5896 5895 5894 5894 5893 5892 5891 5889 5887 5886 5884 5882 5880 5878 5876 5874 5873 5872 5870 5869
5843 5849 5854 5861 5866 5870 5872 5875 5879 5883 5887 5891 5894 5894 5893 5893 5893 5893 5894 5894 5894 5894 5894 5893 5893 5893 5892 5891 5890 5889 5888 5886 5884 5883 5881 5879 5877 5875 5873 5871 5870 5869 5868 5866
5837 5842 5848 5854 5859 5864 5867 5870 5874 5877 5881 5885 5888 5889 5889 5889 5889 5889 5890 5890 5890 5890 5890 5890 5890 5890 5889 5888 5887 5886 5885 5883 5881 5880 5878 5876 5874 5872 5870 5869 5868 5866 5865 5864
5830 5837 5842 5848 5854 5858 5862 5865 5869 5872 5875 5879 5882 5884 5884 5884 5884 5884 5885 5886 5886 5887 5887 5887 5887 5886 5886 5885 5884 5883 5882 5880 5878 5877 5875 5874 5872 5870 5868 5866 5865 5864 5862 5860
5825 5831 5837 5843 5849 5852 5859 5862 5864 5867 5870 5873 5875 5878 5880 5879 5879 5880 5881 5882 5883 5883 5883 5884 5883 5883 5883 5882 5881 5880 5879 5877 5875 5874 5873 5871 5869 5868 5866 5864 5862 5861 5859 5857
5820 5826 5832 5838 5842 5847 5852 5855 5859 5862 5864 5866 5869 5872 5874 5874 5875 5876 5877 5878 5879 5879 5879 5880 5880 5879 5879 5879 5878 5877 5875 5874 5872 5871 5869 5868 5866 5864 5863 5861 5860 5858 5857 5855
5814 5820 5826 5832 5837 5842 5846 5849 5852 5856 5858 5860 5863 5866 5868 5869 5871 5872 5872 5873 5874 5873 5874 5875 5876 5875 5875 5875 5874 5873 5872 5870 5869 5867 5866 5864 5863 5861 5860 5859 5857 5856 5854 5852
5809 5814 5820 5825 5830 5835 5838 5841 5845 5850 5852 5854 5857 5860 5862 5863 5865 5867 5867 5869 5870 5870 5870 5871 5871 5871 5871 5870 5870 5869 5868 5866 5865 5864 5862 5861 5859 5858 5857 5855 5854 5853 5851 5850
5804 5809 5814 5820 5824 5829 5831 5835 5838 5840 5844 5848 5851 5854 5856 5858 5860 5861 5862 5863 5864 5865 5866 5866 5866 5866 5866 5866 5865 5864 5863 5862 5861 5859 5858 5857 5856 5854 5853 5852 5850 5849 5847 5846
5798 5804 5809 5813 5818 5820 5823 5827 5830 5834 5838 5842 5845 5848 5850 5852 5854 5855 5857 5859 5860 5860 5861 5861 5861 5861 5861 5860 5860 5859 5858 5857 5856 5855 5854 5853 5852 5850 5849 5848 5846 5845 5843 5842
5791 5796 5801 5805 5809 5813 5816 5820 5824 5828 5831 5835 5838 5841 5843 5846 5848 5850 5851 5853 5854 5854 5855 5855 5855 5855 5855 5855 5855 5854 5853 5852 5851 5850 5849 5848 5847 5846 5845 5843 5842 5841 5839 5837
5782 5788 5793 5798 5802 5806 5810 5814 5818 5822 5826 5829 5831 5834 5837 5839 5842 5843 5845 5846 5847 5848 5849 5849 5850 5850 5850 5850 5849 5848 5848 5847 5846 5845 5845 5844 5843 5842 5840 5839 5838 5836 5834 5833
5774 5781 5786 5790 5794 5798 5802 5807 5811 5815 5819 5822 5825 5828 5830 5833 5835 5836 5838 5839 5841 5842 5843 5843 5843 5844 5844 5844 5843 5843 5843 5842 5841 5841 5840 5839 5838 5837 5836 5834 5833 5831 5829 5827